EW0259 Weather Reports


time (UTC)temp
C
wind
direction
speed
KPH
gust
KPH
rain 1hr
cm
rain 24hr
cm
rain mn
cm
humidity
%
barometer
mb
20260902165300 17 77 0.0 3.2 0.00 0.03 0.03 74 1007.5
20260902164733 17 148 0.0 3.2 0.00 0.03 0.03 72 1007.7
20260902164301 17 175 0.0 6.4 0.00 0.03 0.03 73 1007.7
20260902163756 17 223 0.0 6.4 0.00 0.03 0.03 74 1007.7
20260902163724 17 223 0.0 6.4 0.00 0.03 0.03 74 1007.7
20260902162738 17 156 0.0 3.2 0.00 0.03 0.03 73 1007.7
20260902162307 17 271 0.0 3.2 0.00 0.03 0.03 73 1007.7
20260902162235 17 271 0.0 3.2 0.00 0.03 0.03 73 1007.7
20260902161733 17 329 0.0 4.8 0.00 0.03 0.03 74 1007.7
20260902161225 17 253 0.0 4.8 0.00 0.03 0.03 71 1007.7
20260902160731 17 118 1.6 4.8 0.00 0.03 0.03 73 1007.6
20260902160238 17 115 1.6 3.2 0.00 0.03 0.03 78 1007.7
20260902155805 17 82 0.0 3.2 0.00 0.03 0.03 79 1007.7
20260902155222 17 82 0.0 6.4 0.00 0.03 0.03 76 1007.6
20260902154727 17 90 1.6 6.4 0.00 0.03 0.03 79 1007.8
20260902154255 17 87 1.6 4.8 0.00 0.03 0.03 81 1007.8
20260902153730 16 53 0.0 3.2 0.00 0.03 0.03 83 1008.1
20260902153238 16 53 1.6 3.2 0.00 0.03 0.03 85 1008.0
20260902152805 16 53 0.0 1.6 0.00 0.03 0.03 87 1008.1
20260902152302 15 53 0.0 0.0 0.00 0.03 0.03 90 1008.0
20260902151737 15 53 0.0 0.0 0.00 0.03 0.03 92 1008.2
20260902151223 14 53 0.0 0.0 0.00 0.03 0.03 92 1008.1
20260902150730 14 53 0.0 0.0 0.00 0.03 0.03 92 1008.2
20260902150221 14 53 0.0 0.0 0.00 0.03 0.03 92 1008.2
20260902145728 14 53 0.0 0.0 0.00 0.03 0.03 93 1008.2
20260902145236 14 53 0.0 0.0 0.00 0.03 0.03 93 1008.3
20260902144722 14 53 0.0 0.0 0.00 0.03 0.03 94 1008.4
20260902144229 13 53 0.0 0.0 0.00 0.03 0.03 94 1008.5
20260902143736 13 53 0.0 0.0 0.00 0.03 0.03 95 1008.6
20260902143303 13 53 0.0 0.0 0.00 0.03 0.03 95 1008.7
20260902143231 13 53 0.0 0.0 0.00 0.03 0.03 95 1008.7
20260902142738 13 53 0.0 0.0 0.00 0.03 0.03 95 1008.7
20260902142227 12 53 0.0 0.0 0.00 0.03 0.03 94 1008.9
20260902141732 12 53 0.0 0.0 0.00 0.03 0.03 94 1008.9
20260902141239 12 53 0.0 0.0 0.00 0.03 0.03 94 1008.8
20260902140730 12 53 0.0 0.0 0.00 0.03 0.03 94 1008.7
20260902140257 12 53 0.0 0.0 0.00 0.03 0.03 94 1008.8
20260902135732 12 53 0.0 0.0 0.00 0.03 0.03 94 1008.7
20260902135300 12 53 0.0 0.0 0.00 0.03 0.03 94 1008.7
20260902134734 12 53 0.0 0.0 0.00 0.03 0.03 94 1008.6
20260902134221 12 53 0.0 0.0 0.00 0.03 0.03 93 1008.6
20260902133728 12 53 0.0 0.0 0.00 0.03 0.03 93 1008.7
20260902133235 12 53 0.0 0.0 0.00 0.03 0.03 93 1008.7
20260902132722 12 53 0.0 0.0 0.00 0.03 0.03 93 1008.7
20260902132230 13 53 0.0 0.0 0.00 0.03 0.03 93 1008.7
20260902131756 13 53 0.0 0.0 0.00 0.03 0.03 93 1008.7
20260902131232 13 53 0.0 0.0 0.00 0.03 0.03 93 1008.7
20260902130759 13 53 0.0 0.0 0.00 0.03 0.03 92 1008.8
20260902130234 13 53 0.0 0.0 0.00 0.03 0.03 93 1009.0
20260902125222 13 53 0.0 0.0 0.00 0.03 0.03 93 1009.0
20260902124728 13 53 0.0 0.0 0.00 0.03 0.03 93 1009.1
20260902124235 13 53 0.0 0.0 0.00 0.03 0.03 93 1009.2
20260902123802 13 53 0.0 0.0 0.00 0.03 0.03 93 1009.2
20260902123238 13 53 0.0 0.0 0.00 0.03 0.03 93 1009.2
20260902122725 13 53 0.0 0.0 0.00 0.03 0.03 93 1009.2
20260902122253 13 53 0.0 0.0 0.00 0.03 0.03 93 1009.2
20260902122221 13 53 0.0 0.0 0.00 0.03 0.03 93 1009.2
20260902121727 13 53 0.0 0.0 0.00 0.03 0.03 93 1009.2
20260902121234 13 53 0.0 0.0 0.00 0.03 0.03 93 1009.3
20260902120721 13 53 0.0 0.0 0.00 0.03 0.03 93 1009.3
20260902120228 13 53 0.0 3.2 0.00 0.03 0.03 93 1009.4
20260902115756 13 53 0.0 3.2 0.00 0.03 0.03 93 1009.4
20260902115232 13 53 0.0 3.2 0.00 0.03 0.03 93 1009.4
20260902114258 13 335 0.0 0.0 0.00 0.03 0.03 93 1009.6
20260902113733 13 335 0.0 0.0 0.00 0.03 0.03 93 1009.6
20260902113224 13 335 0.0 0.0 0.00 0.03 0.03 93 1009.6
20260902112731 13 335 0.0 0.0 0.00 0.03 0.03 93 1009.6
20260902112239 14 335 0.0 0.0 0.00 0.03 0.03 93 1009.7
20260902111725 14 335 0.0 0.0 0.00 0.03 0.03 93 1009.7
20260902111232 14 335 0.0 0.0 0.00 0.03 0.03 93 1009.7
20260902110739 14 335 0.0 0.0 0.00 0.03 0.03 93 1009.8
20260902110306 14 335 0.0 0.0 0.00 0.03 0.03 93 1009.8
20260902110234 14 335 0.0 0.0 0.00 0.03 0.03 93 1009.8
20260902105721 14 335 0.0 0.0 0.00 0.03 0.03 93 1009.8
20260902105309 14 335 0.0 0.0 0.00 0.03 0.03 93 1009.9
20260902105238 14 335 0.0 0.0 0.00 0.03 0.03 93 1009.9
20260902104310 14 277 0.0 0.0 0.00 0.03 0.03 94 1009.9
20260902103725 14 277 0.0 0.0 0.00 0.03 0.03 93 1009.9
20260902103232 14 277 0.0 0.0 0.00 0.03 0.03 93 1010.0
20260902102723 14 277 0.0 3.2 0.00 0.03 0.03 93 1010.0
20260902102231 14 277 0.0 3.2 0.00 0.03 0.03 93 1010.1
20260902101757 14 70 0.0 0.0 0.00 0.03 0.03 93 1010.2
20260902101252 14 70 0.0 0.0 0.00 0.03 0.03 93 1010.1
20260902101221 14 70 0.0 0.0 0.00 0.03 0.03 93 1010.1
20260902100727 14 70 0.0 0.0 0.00 0.03 0.03 93 1010.2
20260902100234 14 70 0.0 0.0 0.00 0.03 0.03 92 1010.2
20260902095721 14 70 0.0 0.0 0.03 0.03 0.03 92 1010.2
20260902095228 14 70 0.0 0.0 0.03 0.03 0.03 92 1010.2
20260902094734 14 70 0.0 0.0 0.03 0.03 0.03 92 1010.2
20260902094221 14 70 0.0 0.0 0.03 0.03 0.03 92 1010.3
20260902093728 14 70 0.0 0.0 0.03 0.03 0.03 92 1010.2
20260902093234 14 70 0.0 0.0 0.03 0.03 0.03 92 1010.3
20260902092725 14 70 0.0 0.0 0.03 0.03 0.03 92 1010.2
20260902092233 14 70 0.0 0.0 0.03 0.03 0.03 92 1010.4
20260902091739 15 70 0.0 0.0 0.03 0.03 0.03 92 1010.3
20260902091226 15 70 0.0 0.0 0.03 0.03 0.03 92 1010.4
20260902090753 15 70 0.0 0.0 0.03 0.03 0.03 92 1010.4
20260902090228 15 70 0.0 0.0 0.03 0.03 0.03 92 1010.5
20260902085735 15 70 0.0 0.0 0.00 0.00 0.00 92 1010.5
20260902085223 15 70 0.0 0.0 0.00 0.00 0.00 92 1010.6
20260902084729 15 70 0.0 0.0 0.00 0.00 0.00 92 1010.7
20260902084237 15 70 0.0 0.0 0.00 0.00 0.00 92 1010.7
20260902083804 15 70 0.0 0.0 0.00 0.00 0.00 91 1010.7
20260902083259 15 70 0.0 0.0 0.00 0.00 0.00 91 1010.8
20260902082734 15 70 0.0 0.0 0.00 0.00 0.00 91 1010.8
20260902082308 15 70 0.0 0.0 0.00 0.00 0.00 91 1010.8
20260902082231 15 70 0.0 0.0 0.00 0.00 0.00 91 1010.8
20260902081720 15 70 0.0 0.0 0.00 0.00 0.00 91 1010.8
20260902081227 15 70 0.0 0.0 0.00 0.00 0.00 91 1010.8
20260902080734 15 70 0.0 0.0 0.00 0.00 0.00 91 1010.8
20260902080302 15 70 0.0 0.0 0.00 0.00 0.00 91 1010.8
20260902075736 15 70 0.0 0.0 0.00 0.00 0.00 91 1010.8
20260902075224 15 70 0.0 0.0 0.00 0.00 0.00 91 1010.9
20260902074810 15 70 0.0 0.0 0.00 0.00 0.00 91 1010.8
20260902074225 15 70 0.0 0.0 0.00 0.00 0.00 91 1011.0
20260902073732 15 70 0.0 0.0 0.00 0.00 0.00 91 1011.0
20260902073239 15 70 0.0 1.6 0.00 0.00 0.00 90 1011.0
20260902072806 15 70 0.0 3.2 0.00 0.00 0.00 90 1011.1
20260902072223 15 127 0.0 0.0 0.00 0.00 0.00 91 1011.0
20260902071809 15 135 0.0 3.2 0.00 0.00 0.00 91 1011.1
20260902071306 15 135 0.0 3.2 0.00 0.00 0.00 91 1011.1
20260902070721 15 168 0.0 3.2 0.00 0.00 0.00 91 1011.2
20260902070232 15 113 0.0 3.2 0.00 0.00 0.00 91 1011.2
20260902065739 15 126 0.0 3.2 0.00 0.00 0.00 91 1011.2
20260902065227 15 126 1.6 3.2 0.00 0.00 0.00 91 1011.2
20260902064752 15 102 0.0 0.0 0.00 0.00 0.00 91 1011.2
20260902064227 15 102 0.0 0.0 0.00 0.00 0.00 91 1011.3
20260902063734 15 102 0.0 3.2 0.00 0.00 0.00 91 1011.4
20260902063221 15 102 0.0 3.2 0.00 0.00 0.00 91 1011.3
20260902062728 15 102 0.0 3.2 0.00 0.00 0.00 91 1011.4
20260902062237 15 102 1.6 3.2 0.00 0.00 0.00 91 1011.4
20260902061721 15 115 0.0 3.2 0.00 0.00 0.00 91 1011.5
20260902061228 15 119 0.0 3.2 0.00 0.00 0.00 91 1011.4
20260902060739 15 119 1.6 3.2 0.00 0.00 0.00 91 1011.4
20260902060306 15 55 0.0 3.2 0.00 0.00 0.00 92 1011.5
20260902055721 15 55 0.0 3.2 0.00 0.00 0.00 91 1011.5
20260902055309 15 141 0.0 0.0 0.00 0.00 0.00 92 1011.4
20260902055237 15 141 0.0 0.0 0.00 0.00 0.00 92 1011.4
20260902054723 15 141 0.0 0.0 0.00 0.00 0.00 92 1011.4
20260902054230 15 141 0.0 0.0 0.00 0.00 0.00 92 1011.4
20260902053737 15 141 0.0 3.2 0.00 0.00 0.00 92 1011.5
20260902053224 15 141 0.0 3.2 0.00 0.00 0.00 92 1011.5
20260902052731 15 117 0.0 3.2 0.00 0.00 0.00 92 1011.7
20260902052240 15 117 1.6 3.2 0.00 0.00 0.00 92 1011.7
20260902051725 15 70 0.0 3.2 0.00 0.00 0.00 92 1011.7
20260902051232 15 70 0.0 3.2 0.00 0.00 0.00 92 1011.7
20260902050800 15 70 0.0 3.2 0.00 0.00 0.00 92 1011.8
20260902050239 15 70 0.0 3.2 0.00 0.00 0.00 92 1011.8
20260902045726 15 64 0.0 3.2 0.00 0.00 0.00 92 1011.7
20260902045234 15 65 0.0 3.2 0.00 0.00 0.00 92 1011.8
20260902044720 15 47 0.0 0.0 0.00 0.00 0.00 92 1011.6
20260902044227 15 47 0.0 0.0 0.00 0.00 0.00 92 1011.7
20260902043734 15 47 0.0 0.0 0.00 0.00 0.00 92 1011.6
20260902043302 15 47 0.0 0.0 0.00 0.00 0.00 91 1011.7
20260902042737 15 47 0.0 0.0 0.00 0.00 0.00 91 1011.8
20260902042225 15 47 0.0 0.0 0.00 0.00 0.00 91 1011.8
20260902041811 15 46 0.0 0.0 0.00 0.00 0.00 91 1011.8
20260902041740 15 46 0.0 0.0 0.00 0.00 0.00 91 1011.8
20260902041226 15 47 0.0 0.0 0.00 0.00 0.00 91 1011.7
20260902040733 15 47 0.0 0.0 0.00 0.00 0.00 91 1011.7
20260902040224 15 47 0.0 0.0 0.00 0.00 0.00 91 1011.7
20260902035731 15 47 0.0 0.0 0.00 0.00 0.00 91 1011.7
20260902035239 15 46 0.0 0.0 0.00 0.00 0.00 91 1011.7
20260902034725 15 44 0.0 0.0 0.00 0.00 0.00 91 1011.7
20260902034232 15 44 0.0 0.0 0.00 0.00 0.00 90 1011.7
20260902033734 15 44 0.0 0.0 0.00 0.00 0.00 89 1011.8
20260902033257 15 44 0.0 0.0 0.00 0.00 0.00 89 1011.7
20260902032752 15 44 0.0 0.0 0.00 0.00 0.00 89 1011.7
20260902032720 15 44 0.0 0.0 0.00 0.00 0.00 89 1011.7
20260902032228 15 44 0.0 0.0 0.00 0.00 0.00 88 1011.7
20260902031734 15 44 0.0 0.0 0.00 0.00 0.00 87 1011.8
20260902031221 16 322 0.0 3.2 0.00 0.00 0.00 86 1011.7
20260902030728 16 281 0.0 3.2 0.00 0.00 0.00 85 1011.6
20260902030239 16 99 0.0 3.2 0.00 0.00 0.00 84 1011.6
20260902025806 16 46 0.0 3.2 0.00 0.00 0.00 83 1011.6
20260902025222 16 348 0.0 12.9 0.00 0.00 0.00 82 1011.5
20260902024727 16 148 1.6 12.9 0.00 0.00 0.00 80 1011.6
20260902024229 17 276 4.8 17.7 0.00 0.00 0.00 79 1011.5
20260902023736 17 327 4.8 16.1 0.00 0.00 0.00 77 1011.4
20260902023303 17 323 0.0 4.8 0.00 0.00 0.00 76 1011.2
20260902023231 17 323 0.0 4.8 0.00 0.00 0.00 76 1011.2
20260902022737 17 45 1.6 4.8 0.00 0.00 0.00 76 1011.2
20260902022225 17 145 0.0 3.2 0.00 0.00 0.00 77 1011.2
20260902021731 17 145 0.0 3.2 0.00 0.00 0.00 77 1011.2
20260902021238 17 70 0.0 3.2 0.00 0.00 0.00 77 1011.3
20260902020725 17 70 0.0 3.2 0.00 0.00 0.00 77 1011.4
20260902020236 17 55 0.0 3.2 0.00 0.00 0.00 77 1011.4
20260902015723 17 55 0.0 3.2 0.00 0.00 0.00 77 1011.2
20260902015311 17 55 0.0 3.2 0.00 0.00 0.00 77 1011.4
20260902014805 17 55 0.0 3.2 0.00 0.00 0.00 77 1011.4
20260902014733 17 55 0.0 3.2 0.00 0.00 0.00 77 1011.4
20260902014220 17 355 1.6 3.2 0.00 0.00 0.00 76 1011.4
20260902013727 17 268 0.0 3.2 0.00 0.00 0.00 76 1011.4
20260902013234 18 311 1.6 4.8 0.00 0.00 0.00 75 1011.5
20260902012721 18 265 1.6 4.8 0.00 0.00 0.00 74 1011.4
20260902012229 18 360 0.0 4.8 0.00 0.00 0.00 74 1011.4
20260902011734 18 167 0.0 8.0 0.00 0.00 0.00 74 1011.4
20260902011221 18 334 1.6 8.0 0.00 0.00 0.00 73 1011.5
20260902010728 18 331 1.6 6.4 0.00 0.00 0.00 73 1011.4
20260902010256 18 29 1.6 6.4 0.00 0.00 0.00 73 1011.4
20260902005735 18 273 1.6 6.4 0.00 0.00 0.00 73 1011.4
20260902005223 18 319 1.6 3.2 0.00 0.00 0.00 73 1011.4
20260902004730 18 124 0.0 6.4 0.00 0.00 0.00 73 1011.5
20260902004253 18 29 3.2 6.4 0.00 0.00 0.00 73 1011.4
20260902003728 18 292 0.0 3.2 0.00 0.00 0.00 74 1011.4
20260902003235 18 321 0.0 3.2 0.00 0.00 0.00 74 1011.5
20260902002722 18 183 1.6 3.2 0.00 0.00 0.00 74 1011.6
20260902002230 18 127 1.6 4.8 0.00 0.00 0.00 75 1011.6
20260902001736 18 351 1.6 4.8 0.00 0.00 0.00 75 1011.6
20260902001223 18 273 1.6 3.2 0.00 0.00 0.00 74 1011.5
20260902000810 18 284 0.0 6.4 0.00 0.00 0.00 74 1011.5
20260902000738 18 284 0.0 6.4 0.00 0.00 0.00 74 1011.5
20260902000226 18 100 1.6 6.4 0.00 0.00 0.00 74 1011.5
20260901235736 18 306 0.0 4.8 0.00 0.00 0.00 74 1011.5
20260901235239 18 314 0.0 4.8 0.00 0.00 0.00 74 1011.5
20260901234725 18 292 1.6 6.4 0.00 0.00 0.00 74 1011.6
20260901234232 18 304 1.6 4.8 0.00 0.00 0.00 74 1011.4
20260901233739 18 63 1.6 4.8 0.00 0.00 0.00 74 1011.5
20260901233221 18 336 1.6 4.8 0.00 0.00 0.00 74 1011.6
20260901232728 18 55 0.0 4.8 0.00 0.00 0.00 75 1011.5
20260901232235 18 248 0.0 4.8 0.00 0.00 0.00 75 1011.5
20260901231720 18 299 0.0 3.2 0.00 0.00 0.00 76 1011.6
20260901231307 17 24 1.6 3.2 0.00 0.00 0.00 76 1011.4
20260901231235 17 24 1.6 3.2 0.00 0.00 0.00 76 1011.4
20260901230742 17 160 1.6 4.8 0.00 0.00 0.00 76 1011.4
20260901230223 17 74 1.6 6.4 0.00 0.00 0.00 76 1011.5
20260901225730 17 292 1.6 6.4 0.00 0.00 0.00 76 1011.6
20260901225238 17 334 0.0 6.4 0.00 0.00 0.00 76 1011.6
20260901224724 17 159 0.0 6.4 0.00 0.00 0.00 76 1011.5
20260901224252 17 315 1.6 9.7 0.00 0.00 0.00 76 1011.6
20260901223807 17 295 1.6 9.7 0.00 0.00 0.00 76 1011.6
20260901223735 17 295 1.6 9.7 0.00 0.00 0.00 76 1011.6
20260901223222 17 115 0.0 4.8 0.00 0.00 0.00 76 1011.6
20260901222809 17 313 0.0 6.4 0.00 0.00 0.00 76 1011.7
20260901222306 17 57 1.6 6.4 0.00 0.00 0.00 76 1011.6
20260901221720 17 303 3.2 6.4 0.00 0.00 0.00 75 1011.7
20260901221227 17 205 1.6 4.8 0.00 0.00 0.00 76 1011.6
20260901220734 17 149 1.6 9.7 0.00 0.00 0.00 76 1011.6
20260901220221 18 285 4.8 9.7 0.00 0.00 0.00 74 1011.6
20260901215728 18 14 1.6 9.7 0.00 0.00 0.00 74 1011.4
20260901215256 18 283 3.2 11.3 0.00 0.00 0.00 75 1011.4
20260901215224 18 283 3.2 11.3 0.00 0.00 0.00 75 1011.4
20260901214257 18 52 1.6 12.9 0.00 0.00 0.00 75 1011.4
20260901213753 17 292 1.6 12.9 0.00 0.00 0.00 75 1011.4
20260901213232 18 265 4.8 12.9 0.00 0.00 0.00 74 1011.4
20260901212739 18 165 3.2 11.3 0.00 0.00 0.00 74 1011.5
20260901212227 18 235 1.6 9.7 0.00 0.00 0.00 74 1011.6
20260901211733 18 252 1.6 4.8 0.00 0.00 0.00 73 1011.6
20260901211220 18 276 1.6 6.4 0.00 0.00 0.00 74 1011.5
20260901210808 18 302 1.6 6.4 0.00 0.00 0.00 74 1011.7
20260901210304 18 262 3.2 6.4 0.00 0.00 0.00 74 1011.6
20260901205800 18 283 3.2 4.8 0.00 0.00 0.00 75 1011.4
20260901205236 18 302 1.6 3.2 0.00 0.00 0.00 75 1011.5
20260901204722 18 297 0.0 3.2 0.00 0.00 0.00 75 1011.6
20260901204229 18 301 1.6 3.2 0.00 0.00 0.00 75 1011.6
20260901203736 18 281 1.6 4.8 0.00 0.00 0.00 75 1011.6
20260901203303 18 153 1.6 4.8 0.00 0.00 0.00 76 1011.7
20260901203231 18 153 1.6 4.8 0.00 0.00 0.00 76 1011.7
20260901202759 17 66 1.6 4.8 0.00 0.00 0.00 76 1011.7
20260901202236 17 71 0.0 3.2 0.00 0.00 0.00 77 1011.7
20260901201801 17 57 0.0 3.2 0.00 0.00 0.00 77 1011.6
20260901201221 17 56 1.6 4.8 0.00 0.00 0.00 77 1011.6
20260901200728 17 74 1.6 4.8 0.00 0.00 0.00 77 1011.6
20260901200235 17 84 1.6 4.8 0.00 0.00 0.00 77 1011.6
20260901195722 17 85 3.2 6.4 0.00 0.00 0.00 77 1011.6
20260901195231 17 109 3.2 9.7 0.00 0.00 0.00 77 1011.6
20260901194736 17 92 3.2 9.7 0.00 0.00 0.00 76 1011.7
20260901194223 17 146 4.8 8.0 0.00 0.00 0.00 77 1011.7
20260901193730 17 74 4.8 8.0 0.00 0.00 0.00 77 1011.7
20260901193237 17 63 1.6 3.2 0.00 0.00 0.00 77 1011.8
20260901192724 17 84 0.0 4.8 0.00 0.00 0.00 78 1011.8
20260901192253 17 84 1.6 8.0 0.00 0.00 0.00 78 1011.7
20260901191731 17 80 1.6 8.0 0.00 0.00 0.00 77 1011.7
20260901191238 17 51 0.0 4.8 0.00 0.00 0.00 78 1011.8
20260901190806 17 80 1.6 8.0 0.00 0.00 0.00 77 1011.8
20260901190221 17 86 1.6 8.0 0.00 0.00 0.00 77 1011.8
20260901185728 17 86 1.6 9.7 0.00 0.00 0.00 78 1011.8
20260901185231 17 92 3.2 9.7 0.00 0.00 0.00 77 1011.8
20260901184757 17 78 3.2 9.7 0.00 0.00 0.00 76 1011.8
20260901184232 17 83 0.0 4.8 0.00 0.00 0.00 78 1011.9
20260901183739 17 83 0.0 4.8 0.00 0.00 0.00 77 1011.8
20260901183226 17 105 1.6 3.2 0.00 0.00 0.00 77 1011.8
20260901182732 17 236 1.6 3.2 0.00 0.00 0.00 78 1011.8
20260901182240 17 80 0.0 4.8 0.00 0.00 0.00 79 1011.7
20260901181730 17 74 1.6 4.8 0.00 0.00 0.00 79 1011.7
20260901181237 17 134 4.8 4.8 0.00 0.00 0.00 79 1011.7
20260901180805 17 76 3.2 4.8 0.00 0.00 0.00 80 1011.8
20260901180220 16 94 1.6 6.4 0.00 0.00 0.00 80 1011.7
20260901175727 16 130 1.6 4.8 0.00 0.00 0.00 80 1011.7
20260901175255 16 102 1.6 4.8 0.00 0.00 0.00 81 1011.7
20260901174729 16 169 0.0 8.0 0.00 0.00 0.00 81 1011.7
20260901174256 16 92 3.2 6.4 0.00 0.00 0.00 81 1011.7
20260901173732 16 199 1.6 4.8 0.00 0.00 0.00 81 1011.6
20260901173239 16 92 1.6 4.8 0.00 0.00 0.00 81 1011.6
20260901172726 16 63 3.2 4.8 0.00 0.00 0.00 81 1011.4
20260901172234 16 84 1.6 4.8 0.00 0.00 0.00 82 1011.5
20260901171800 16 86 0.0 3.2 0.00 0.00 0.00 82 1011.4
20260901171256 16 96 0.0 4.8 0.00 0.00 0.00 83 1011.4
20260901171225 16 96 0.0 4.8 0.00 0.00 0.00 83 1011.4
20260901170731 16 86 1.6 4.8 0.00 0.00 0.00 83 1011.4
20260901170222 16 93 1.6 4.8 0.00 0.00 0.00 83 1011.4
20260901165729 16 120 0.0 4.8 0.00 0.00 0.00 84 1011.3